Location: Rounton
(54.4000°N, 1.3500°W)
Time: 15:19:52
(UTC+00:00)

Transit 2A - Pass Details

Date: 07 December 2021
Orbit: 591 x 967 km, 66.7° (Epoch: 21 January)

Event Time Altitude Azimuth Distance (km) Brightness Sun altitude
Rises 00:20:30 0° 221° (SW) 3,376 - -57.9°
Reaches altitude 10° 00:22:51 10° 222° (SW) 2,496 - -57.8°
Maximum altitude 00:28:44 87° 312° (NW) 925 - -57.6°
Drops below altitude 10° 00:35:05 10° 42° (NE) 2,693 - -57.4°
Exits shadow 00:37:36 - 43° (NE) 3,615 9.9 -57.3°
Sets 00:37:43 0° 43° (NE) 3,659 9.9 -57.3°
